"Pseudo-MPEC" for ZKA8FB3

Created 2018 May 23 1:18:15 UT using Find_Orb

Click here for an explanation of pseudo-MPECs

 
 Astrometry: 
     ZKA8FB3  C2018 05 17.40610 20 19 11.99 +05 17 13.3          19.9 GUNEOCPG96
     ZKA8FB3  C2018 05 17.41087 20 19 11.84 +05 17 13.2          19.9 GUNEOCPG96
     ZKA8FB3  C2018 05 17.41566 20 19 11.69 +05 17 13.2          19.8 GUNEOCPG96
     ZKA8FB3  C2018 05 17.42044 20 19 11.54 +05 17 13.0          20.2 GUNEOCPG96
     ZKA8FB3  C2018 05 17BwAstrometry$K9[l\?9b^'4NITrtP:nkv=#/Bv,GGy(m5!`x`h2H01
     ZKA8FB3  C2018 05 17hk@afJUZh0+W6_fY[M\Lb*b=j:#2F$G-Dq$:4Et%_`^@gW:ZaVw+H01
     ZKA8FB3  C2018 05 17pUvUvCb@oXx/Nf.km=)h*!ED[`3kJBcGw9j93_K1HyRWCJs'l#(7H01
     ZKA8FB3  C2018 05 17QVQw'M`NJTr=g2hSZg+kC(/.@lv0+R;(YhCa8wZUlCqdr.+h$nPxH01
     ZKA8FB3 (C2018 05 18`*tJ6Mer`S;HEl(T1NQ\._$DH(ly'-]UWs(Cliva7B.sP?G(!/D:G40
     ZKA8FB3 (C2018 05 18jH88*_kelOA##FHlw0]sVI7WQlAua1wSI\8o!^xBb.Il_3*X+:(vG40
     ZKA8FB3  C2018 05 18L3Bmc)$:7'v)PxhNtPOt8RAR?%0$?lTEvlCZJ]qR4T\fB1`L:5?lH01
     ZKA8FB3  C2018 05 180qe5[i.NCT.sFQSqh$#Y_hUJO(d!VNru=SdK[aYC[NhQ=m.?mb[rH01
     ZKA8FB3  C2018 05 18kc\/dm76hTD-YYn9#)s+LJH?XBy%*ZwuxZ^'uSo)QVb0%!3.t?ZDH01
     ZKA8FB3  C2018 05 18.37994 20 18 42.75 +05 16 47.9          19.7 GUNEOCPI52
     ZKA8FB3  C2018 05 18ASV=R6Gggve!Z'(/4x8eT!vYcBQ\VOXd,upvC]cse.*m=rE0^T1ZH01
     ZKA8FB3  C2018 05 18.39117 20 18 42.48 +05 16 47.5          19.8 GUNEOCPI52
     ZKA8FB3  C2018 05 18.39903 20 18 42.23 +05 16 47.0          19.8 GUNEOCPI52
     ZKA8FB3 |C2018 05 183gw/Z@H8*T3*08m^:redacted;XlxLcqqs/K*C9L@DTBlFL4'*D?H06
     ZKA8FB3 |C2018 05 18x\30N2\8].1F3piv/)@KgdRgx3LwR$Y?4.+qBYehl[WMWAVR_[?#H06
     ZKA8FB3 |C2018 05 18g,2S,62Kt1vNTU:B!uTN-O^_4t$k;dGwg3(8an46HCPDE%RM2'fKH06
     ZKA8FB3  C2018 05 19o:OaUn.KE/N2v0K7$9M]W%\]WcI_Ou.CJoyrXJ=ARP=cUTAn\HQ9L01
     ZKA8FB3  C2018 05 19'3v^wFwu`JEU#rgM5.Z?KwtZriptt/!b`:_`7?[QCZ-FRtNB].a.L01
     ZKA8FB3  C2018 05 19_\BW%8RySabm_t]6=qwdJLlF/T-q9CnJH`Hb0c$Wdp^=aU58s9deL01
     ZKA8FB3  C2018 05 19.39205 20 18 11.55 +05 16 17.5          19.7 GUNEOCPI52
     ZKA8FB3  C2018 05 19.39892 20 18 11.31 +05 16 16.5          19.7 GUNEOCPI52
     ZKA8FB3  C2018 05 19.40579 20 18 11.10 +05 16 16.3          19.5 GUNEOCPI52
     ZKA8FB3  C2018 05 19.41266 20 18 10.88 +05 16 16.2          19.6 GUNEOCPI52
     ZKA8FB3  C2018 05 20_M?Fy2jG78-9:p#$N5BU+ZLFia_cT#(m+:*4*QKv8?k.vo]1klq%L01
     ZKA8FB3  C2018 05 20=nZWh`\1bPoP4V08OU!KJ8]o^Ttqi6NF%.`;skhS%BciZ8E5cIM?L01
     ZKA8FB3  C2018 05 20e.mhZ\X.]7pwRiC1-SpFgbEW%H^AJ45lHKJ0.b`:o`8Gn3=nU%92L01
     ZKA8FB3  C2018 05 20*Jd]tSrf!x72`S8Fmb,_B-.0J?)p+h2Usee,oP_B;t-'Z`s'.5gGL01
     ZKA8FB3  C2018 05 20XuUByXa]NlK:G1cwK+nf%!G:@A$0bKh]'07_qtgcy[d0Db[*0!ceL01
     ZKA8FB3  C2018 05 20#'wx+-aWOx8_5Q0/MbS7swS.[cdEO@V=!JMy:e8P94OggOt7^Uy3L01
     ZKA8FB3 KC2018 05 20v!C9V9rfq3Qd=mf0[fH];gW-Aob@\^AZRxsJJ:A]E+T9LeNhQw%GC95
     ZKA8FB3 KC2018 05 206T_,p%B/;RPe#j`:5Fo(r4W:?.?fL/te;kj8TD:owjZT4tHJ@=,lC95
     ZKA8FB3 KC2018 05 20+c,Kq%kw5fb*1,BeQ]4('n6B^@cVLUajbf;AX9VxUa/b]NmtbO0eC95
     ZKA8FB3  C2018 05 20.42736 20 17 38.55 +05 15 40.6          19.4 GUNEOCPI52
     ZKA8FB3  C2018 05 20.43430 20 17 38.31 +05 15 40.2          19.6 GUNEOCPI52
     ZKA8FB3  C2018 05 20.44123 20 17 38.05 +05 15 39.3          19.5 GUNEOCPI52
     ZKA8FB3 HC2018 05 20rRI8oYKu.gaJbs=?qrZZZ=b'8$VnhAfAEXjXv;S+\o/EhL:DRNYo691
     ZKA8FB3 HC2018 05 20k:aoq/^luYk-IJ*?#iULxToJL/H$7[N(v5RmEj9tI+(LU2k2U!_S691
     ZKA8FB3  C2018 05 21.42284 20 17 05.85 +05 14 59.5                UNEOCPI52
     ZKA8FB3  C2018 05 21.43057 20 17 05.54 +05 14 59.6          19.5 GUNEOCPI52
     ZKA8FB3 HC2018 05 21U.W(=Y,.;4kkJw8IgQCj6%kkbXFcqyr%0Tvj;^_OOPyLh9sF]0%U691
     ZKA8FB3  C2018 05 21.43735 20 17 05.34 +05 14 59.3          19.5 GUNEOCPI52
     ZKA8FB3 HC2018 05 21qb3=%^qQc',9KGx0vM`PT(RGVR+fX+AOG/Fm=W1EcJpdH';PAk*$691
     ZKA8FB3 HC2018 05 21wQZ*6uukv*kR/4cTwg$j_W@[H$_y/s)FsEAnjS\@+k.Hy`iNEOCP691
     ZKA8FB3  C2018 05 22.39207 20 16 33.07 +05 14 16.3          19.9 GUNEOCPI52
     ZKA8FB3  C2018 05 22.39911 20 16 32.87 +05 14 16.1          19.8 GUNEOCPI52
     ZKA8FB3  C2018 05 22.41146 20 16 32.42 +05 14 15.0          19.8 GUNEOCPI52

Station data:
(691) Steward Observatory, Kitt Peak - Spacewatch  (N31.957971 W111.599000)
   US/Arizona.  Observer J. V. Scotti. 0.9-m f/3 reflector + CCD.
(C95) SATINO Remote Observatory, Haute Provence  (N43.932042 E5.712390)
   France.
(G40) Slooh.com Canary Islands Observatory  (N28.299720 W16.508260)  Canary
   Islands (Spain).  Observers G. Gašparović, Y. Chen. 0.43-m f/6.8 Corrected
   Dall-Kirkham + CCD.
(G96) Mt. Lemmon Survey  (N32.442754 W110.788720)  US/Arizona.  Observers E.
   J. Christensen, A. R. Gibbs, A. D. Grauer, R. E. Hill, J. A. Johnson, R.
   A. Kowalski, S. M. Larson, F. C. Shelly. 1.5-m reflector + CCD.
(H01) Magdalena Ridge Observatory, Socorro  (N33.985151 W107.189200)  US/New
   Mexico.  Observers W. H. Ryan, E. V. Ryan. Measurer W. H. Ryan. 2.4-m
   f/8.9 reflector + CCD.
(H06) RAS Observatory, Mayhill  (N32.903325 W105.528700)  US/New
   Mexico.  Observers E. Guido, G. Sostero, V. Gonano, L. Donato.
(I52) Steward Observatory, Mt. Lemmon Station  (N32.442547 W110.788920)
   US/Arizona.
(L01) Višnjan Observatory, Tičan  (N45.290900 E13.749300)  Croatia.

Orbital elements:  ZKA8FB3
   Perihelion 2019 Sep 27.099624 +/- 80.2 TT =  2:23:27 (JD 2458753.599624)
Epoch 2018 May 22.0 TT = JDT 2458260.5                        AutoNEOCP
M 358.22301 +/- 15                  (J2000 ecliptic)
n   0.00360369 +/- 0.0144           Peri.  218.58515 +/- 5.3
a  42.1344403 +/- 114               Node    91.91862 +/- 1.1
e   0.9129571 +/- 0.247             Incl.  136.29147 +/- 1.4
P 273.50                   H 12.3   G  0.15   U  9.9  
q 3.66750348 +/- 0.129    Q 80.6013773 +/- 195
From 50 observations 2018 May 17-22; mean residual 0".24
Residuals in arcseconds: 
180517 G96  .14+  .01+    180518 H06  .18+  .07-    180520 C95  .08+  .05+    
180517 G96  .04+  .03+    180518 H06  .02+  .18-    180520 C95  .01-  .15-    
180517 G96  .05-  .14+    180518 H06  .30+  .29-    180520 I52  .45+  .34+    
180517 G96  .15-  .05+    180519 L01  .16+  .16+    180520 I52  .28+  .20+    
180517 H01  .15+  .10+    180519 L01  .14-  .03+    180520 I52  .19-  .44-    
180517 H01  .13+  .07+    180519 L01  .33-  .08+    180520 691  .13+  .48+    
180517 H01  .06+  .06+    180519 I52  .17+  .58+    180520 691  .01-  .08-    
180517 H01  .12+  .05+    180519 I52  .14-  .20-    180521 I52  .35+  .62-    
180518 G40  .16-  .02-    180519 I52  .00   .18-    180521 I52  .37-  .19-    
180518 G40  .04-  .04-    180519 I52  .01-  .05-    180521 691  .11+  .27+    
180518 H01  .03-  .02+    180520 L01  .12+  .53-    180521 I52  .08+  .20-    
180518 H01  .02+  .03+    180520 L01  .16-  .15+    180521 691  .29+  .27+    
180518 H01  .07+  .04+    180520 L01  .15-  .23+    180521 691  .10-  .28+    
180518 I52  1.0-  .01+    180520 L01  .27-  .29-    180522 I52  .44-  .02-    
180518 H01  .12+  .05-    180520 L01  .05+  .39+    180522 I52  .23+  .12+    
180518 I52  .13+  .08-    180520 L01  .08-  .54-    180522 I52  .08-  .40-    
180518 I52  .02+  .36-    180520 C95  .12-  .45+    

Ephemerides (geocentric):
Date (UTC) HH   RA              Dec         delta   r     elong  mag " sig PA
---- -- -- --  ------------   ------------  ------ ------ -----  --- ---- ---
2018 05 23 01  20 16 10.596   +05 13 45.14  4.9966 5.4523 111.7 20.1  .25 172
2018 05 23 02  20 16 09.142   +05 13 43.01  4.9957 5.4520 111.7 20.1  .25 171
2018 05 23 03  20 16 07.686   +05 13 40.88  4.9949 5.4518 111.8 20.1  .26 171
2018 05 23 04  20 16 06.229   +05 13 38.74  4.9940 5.4516 111.8 20.1  .27 171
2018 05 23 05  20 16 04.771   +05 13 36.58  4.9931 5.4513 111.8 20.1  .28 171
2018 05 23 06  20 16 03.310   +05 13 34.42  4.9922 5.4511 111.9 20.1  .29 170
2018 05 23 07  20 16 01.848   +05 13 32.25  4.9913 5.4509 111.9 20.1  .30 170
2018 05 23 08  20 16 00.384   +05 13 30.07  4.9905 5.4506 112.0 20.1  .31 170
2018 05 23 09  20 15 58.919   +05 13 27.88  4.9896 5.4504 112.0 20.1  .31 170
2018 05 23 10  20 15 57.452   +05 13 25.69  4.9887 5.4502 112.0 20.1  .32 169
2018 05 23 11  20 15 55.983   +05 13 23.48  4.9878 5.4499 112.1 20.1  .33 169
2018 05 23 12  20 15 54.513   +05 13 21.26  4.9870 5.4497 112.1 20.1  .34 169
2018 05 23 13  20 15 53.041   +05 13 19.04  4.9861 5.4495 112.2 20.1  .35 169
2018 05 23 14  20 15 51.567   +05 13 16.81  4.9852 5.4492 112.2 20.1  .36 168
2018 05 23 15  20 15 50.092   +05 13 14.56  4.9843 5.4490 112.3 20.1  .37 168
2018 05 23 16  20 15 48.615   +05 13 12.31  4.9835 5.4488 112.3 20.1  .38 168
2018 05 23 17  20 15 47.136   +05 13 10.05  4.9826 5.4485 112.3 20.1  .39 168
2018 05 23 18  20 15 45.655   +05 13 07.78  4.9817 5.4483 112.4 20.1  .40 168
2018 05 23 19  20 15 44.173   +05 13 05.50  4.9808 5.4481 112.4 20.1  .41 167
2018 05 23 20  20 15 42.690   +05 13 03.22  4.9800 5.4478 112.5 20.1  .42 167
2018 05 23 21  20 15 41.204   +05 13 00.92  4.9791 5.4476 112.5 20.1  .43 167
2018 05 23 22  20 15 39.717   +05 12 58.61  4.9782 5.4474 112.5 20.1  .44 167
2018 05 23 23  20 15 38.228   +05 12 56.30  4.9773 5.4471 112.6 20.1  .45 167
2018 05 24 00  20 15 36.738   +05 12 53.98  4.9765 5.4469 112.6 20.1  .46 166
2018 05 24 01  20 15 35.246   +05 12 51.64  4.9756 5.4467 112.7 20.1  .47 166
2018 05 24 02  20 15 33.752   +05 12 49.30  4.9747 5.4464 112.7 20.1  .48 166
2018 05 24 03  20 15 32.257   +05 12 46.95  4.9739 5.4462 112.8 20.1  .49 166
2018 05 24 04  20 15 30.760   +05 12 44.59  4.9730 5.4460 112.8 20.1  .50 166
2018 05 24 05  20 15 29.261   +05 12 42.22  4.9721 5.4457 112.8 20.1  .52 165
2018 05 24 06  20 15 27.760   +05 12 39.84  4.9712 5.4455 112.9 20.1  .53 165
2018 05 24 07  20 15 26.258   +05 12 37.45  4.9704 5.4452 112.9 20.1  .54 165
2018 05 24 08  20 15 24.754   +05 12 35.06  4.9695 5.4450 113.0 20.1  .55 165
2018 05 24 09  20 15 23.249   +05 12 32.65  4.9686 5.4448 113.0 20.1  .56 165
2018 05 24 10  20 15 21.742   +05 12 30.24  4.9678 5.4445 113.0 20.1  .57 164
2018 05 24 11  20 15 20.233   +05 12 27.81  4.9669 5.4443 113.1 20.1  .59 164
2018 05 24 12  20 15 18.723   +05 12 25.38  4.9660 5.4441 113.1 20.1  .60 164
2018 05 24 13  20 15 17.210   +05 12 22.94  4.9651 5.4438 113.2 20.1  .61 164
2018 05 24 14  20 15 15.697   +05 12 20.48  4.9643 5.4436 113.2 20.1  .62 164
2018 05 24 15  20 15 14.181   +05 12 18.02  4.9634 5.4434 113.3 20.1  .63 164
2018 05 24 16  20 15 12.664   +05 12 15.55  4.9625 5.4431 113.3 20.1  .65 163
2018 05 24 17  20 15 11.145   +05 12 13.07  4.9617 5.4429 113.3 20.1  .66 163
2018 05 24 18  20 15 09.625   +05 12 10.58  4.9608 5.4427 113.4 20.1  .67 163
2018 05 24 19  20 15 08.103   +05 12 08.09  4.9599 5.4424 113.4 20.1  .68 163
2018 05 24 20  20 15 06.579   +05 12 05.58  4.9591 5.4422 113.5 20.1  .70 163
2018 05 24 21  20 15 05.053   +05 12 03.06  4.9582 5.4420 113.5 20.1  .71 163
2018 05 24 22  20 15 03.526   +05 12 00.54  4.9573 5.4417 113.5 20.1  .72 162
2018 05 24 23  20 15 01.997   +05 11 58.00  4.9565 5.4415 113.6 20.1  .74 162
2018 05 25 00  20 15 00.467   +05 11 55.46  4.9556 5.4413 113.6 20.1  .75 162